Welcome to the New NWS' Forecast!
Most changes are behind the scenes, but click here for differences you might notice.
Latest weather observations around

Anniston Metro Airport (KANB)

Using English Units (Switch to International System of Units)
Date/ Time (CST) Wind (mph) Vis. (mi) Weather Sky Cond. Temp (°F) Rel. Humidity Wind Chill (°F) Heat Index (°F) Pressure Precip. (in)
Air Dwpt 6 hour Altimeter (inHg) Sea level (inHg) 1 hr 3 hr 6 hr
Max Min
Nov 18 01:53 Calm 10 Cloudy OVC032 47 43     86%     30.01 30.01      
Nov 18 00:53 Calm 10 Clear CLR 45 41     86%     30.01 30.01      
Nov 17 23:53 Calm 10 Clear CLR 44 40     85%     30.03 30.03      
Nov 17 22:53 Calm 10 Clear CLR 45 40     82%     30.04 30.05      
Nov 17 21:53 Calm 10 Clear CLR 45 40     82%     30.05 30.06      
Nov 17 20:53 NE 3 10 Clear CLR 45 41     86% 44   30.06 30.07      
Nov 17 19:53 ENE 3 10 Clear CLR 46 41     82% 45   30.07 30.09      
Nov 17 18:53 Calm 10 Clear CLR 48 41     77%     30.08 30.1      
Nov 17 17:53 Calm 10 Clear CLR 51 39     63%     30.08 30.09      
Nov 17 16:53 SE 3 10 Clear CLR 58 38     47%     30.06 30.07      
Nov 17 15:53 SE 5 10 Clear CLR 66 34     30%     30.05 30.06      
Nov 17 14:53 E 8 10 Clear CLR 68 33     27%     30.05 30.06      
Nov 17 13:53 Calm 10 Clear CLR 68 35     30%     30.07 30.08      
Nov 17 12:53 3 10 Clear CLR 68 37     32%     30.1 30.1      
Nov 17 11:53 Calm 10 Clear CLR 65 43     45%     30.12 30.12      
Nov 17 10:53 5 10 Clear CLR 61 42     50%     30.15 30.16      
Nov 17 09:53 NNE 5 10 Clear CLR 56 42     60%     30.19 30.2      
Nov 17 08:53 NE 6 10 Clear CLR 50 42     74% 48   30.2 30.22      
Nov 17 07:53 E 3 10 Clear CLR 41 39     93% 39   30.21 30.22      
Nov 17 06:53 Calm 9 Clear CLR 36 34     92%     30.2 30.22      
Nov 17 06:10 Calm 8 Mostly Clear FEW001 35 32     88%     30.18        
Nov 17 06:03 Calm 2 Fog/Mist SCT001 34 32     92%     30.18        
Nov 17 06:01 Calm 1 Fog/Mist VV001 35 33     92%     30.18        
Nov 17 05:53 E 3 0.5 Fog VV001 35 32     88% 32   30.18 30.19      
Nov 17 05:51 Calm 0.5 Fog VV001 36 32     87%     30.18        
Nov 17 05:48 Calm 1.75 Fog/Mist FEW002 36 30     81%     30.18        
Nov 17 04:53 Calm 9 Clear CLR 36 33     89%     30.17 30.18      
Nov 17 03:53 E 3 8 Clear CLR 37 35     92% 35   30.14 30.15      
Nov 17 03:30 ENE 3 8 Mostly Clear FEW001 37 35     92% 35   30.15        
Nov 17 02:53 E 3 9 Clear CLR 37 35     92% 35   30.15 30.16      
Nov 17 02:08 ENE 3 3 Fog/Mist FEW002 38 36     92% 36   30.16        
Nov 17 01:56 E 3 1.75 Fog/Mist FEW002 39 36     89% 37   30.16        
Nov 17 01:53 E 3 4 Fog/Mist CLR 39 36     89% 37   30.16 30.17      
Nov 17 01:31 Calm 7 Partly Cloudy SCT002 38 36     92%     30.16        
Nov 17 01:29 Calm 2.5 Fog/Mist BKN002 39 36     89%     30.16        
Nov 17 01:20 Calm 0.75 Fog/Mist VV002 39 36     89%     30.16        
Nov 17 01:07 Calm 0.25 Fog VV002 39 37     93%     30.16        
Nov 17 00:59 NE 3 0.75 Fog/Mist VV002 39 36     89% 37   30.16        
Nov 17 00:57 NE 3 2.5 Fog/Mist FEW002 39 36     89% 37   30.16        
Nov 17 00:53 Calm 8 Clear CLR 39 36     89%     30.16 30.17      
Nov 17 00:46 Calm 2 Fog/Mist CLR 38 35     89%     30.17        
Nov 17 00:42 Calm 0.75 Fog/Mist CLR 39 35     86%     30.17        
Nov 17 00:29 Calm 1.75 Fog/Mist CLR 38 35     89%     30.17        
Nov 16 23:53 Calm 10 Clear CLR 41 37     86%     30.17 30.17      
Nov 16 23:34 Calm 3 Fog/Mist FEW002 41 38     89%     30.16        
Nov 16 23:31 Calm 1.25 Fog/Mist FEW002 41 39     93%     30.17        
Nov 16 23:22 Calm 0.75 Fog/Mist VV002 41 38     89%     30.16        
Nov 16 23:19 Calm 1.5 Fog/Mist FEW002 40 37     89%     30.16        
Nov 16 22:53 Calm 9 Clear CLR 41 37     86%     30.16 30.17      
Nov 16 21:53 Calm 10 Clear CLR 41 38     89%     30.16 30.17      
Nov 16 20:53 Calm 10 Clear CLR 44 40     85%     30.15 30.16      
Nov 16 19:53 Calm 10 Clear CLR 47 43     86%     30.14 30.14      
Nov 16 18:53 N 6 10 Clear CLR 54 41     61%     30.13 30.14      
Nov 16 17:53 N 8 10 Clear CLR 61 41     48%     30.12 30.12      
Nov 16 16:53 N 6 10 Clear CLR 62 41     46%     30.11 30.11      
Nov 16 15:53 NW 6 10 Clear CLR 66 44     45%     30.1 30.1      
Nov 16 14:53 N 9 10 Clear CLR 67 46     47%     30.1 30.1      
Nov 16 13:53   10 Clear CLR 67 48     51%     30.1 30.1      
Nov 16 12:53 WSW 7 10 Clear CLR 65 49     56%     30.11 30.11      
Nov 16 11:53 WSW 6 10 Partly Cloudy SCT032 65 50     58%     30.13 30.12      
Nov 16 10:53 Calm 10 Mostly Cloudy BKN030 62 50     65%     30.16 30.16      
Nov 16 10:31 WNW 6 10 Cloudy OVC031 62 50     65%     30.17        
Nov 16 10:15 N 8 10 Mostly Cloudy BKN029 BKN035 63 51     65%     30.17        
Nov 16 09:53 Calm 10 Mostly Cloudy FEW021 BKN035 62 51     67%     30.17 30.17      
Nov 16 08:53 Calm 10 Cloudy OVC035 57 51     81%     30.17 30.18      
Nov 16 08:31 Calm 10 Cloudy SCT023 OVC035 56 50     80%     30.17        
Nov 16 07:53 Calm 10 Cloudy OVC023 54 49     83%     30.17 30.17      
Nov 16 06:53 WSW 7 10 Cloudy OVC023 52 48     86%     30.15 30.16      
Nov 16 05:53 WSW 7 10 Cloudy OVC025 52 48     86%     30.14 30.14      
Nov 16 04:53 Calm 10 Cloudy OVC029 51 48     89%     30.13 30.13      
Nov 16 04:45 SW 3 10 Cloudy OVC029 51 48     89%     30.13        
Nov 16 03:53 Calm 10 Cloudy OVC032 51 48     89%     30.12 30.12      
Nov 16 02:53 Calm 7 Mostly Clear FEW035 48 45     89%     30.12 30.13      
Nov 16 01:53 Calm 10 Cloudy OVC035 52 48     86%     30.11 30.11      
Nov 16 00:53 Calm 10 Cloudy SCT039 OVC060 53 49     86%     30.12 30.12      
Nov 15 23:53 Calm 10 Cloudy OVC060 53 49     86%     30.12 30.12     0
Nov 15 22:53 Calm 10 Cloudy FEW042 OVC065 53 50     89%     30.12 30.12      
Nov 15 21:53 Calm 10 Cloudy OVC050 54 49     83%     30.12 30.12 0    
Nov 15 20:53 Calm 10 Light Rain OVC065 53 49     86%     30.13 30.14 0 0  
Nov 15 19:53 Calm 10 Cloudy BKN090 OVC110 53 48     83%     30.11 30.13      
Nov 15 18:53 Calm 10 Mostly Cloudy SCT070 BKN090 BKN120 54 47     77%     30.11 30.12      
Nov 15 17:53 Calm 10 Cloudy OVC075 56 46     69%     30.11 30.13      
Nov 15 16:53 NW 3 10 Mostly Cloudy FEW080 BKN110 58 45     62%     30.1 30.11      
Nov 15 15:53 WSW 3 10 Mostly Clear FEW120 62 43     50%     30.08 30.09      
Nov 15 14:53 Calm 10 Clear CLR 64 42     45%     30.09 30.09      
Nov 15 13:53 ENE 3 10 Clear CLR 62 42     48%     30.1 30.1      
Nov 15 12:53 3 10 Clear CLR 61 43     52%     30.11 30.11      
Nov 15 11:53 NE 5 10 Clear CLR 59 42     53%     30.14 30.14      
Nov 15 10:53 E 5 10 Clear CLR 56 41     57%     30.17 30.18      
Nov 15 09:53 ESE 10 10 Clear CLR 53 40     61%     30.2 30.21      
Nov 15 08:53 E 10 10 Clear CLR 51 42     71%     30.21 30.22      
Nov 15 07:53 NE 7 10 Clear CLR 47 41     80% 44   30.21 30.23      
Nov 15 06:53 NE 5 10 Clear CLR 44 40     85% 41   30.21 30.23      
Nov 15 05:53 NNE 7 10 Clear   44 39     82% 40   30.2 30.21      
Nov 15 04:53 NE 7 10 Clear CLR 44 40     85% 40   30.18 30.19      
Nov 15 03:53 NE 7 10 Clear CLR 44 40     85% 40   30.18 30.18      
Nov 15 02:53 NE 7 10 Clear CLR 45 41     86% 41   30.19 30.2      
Jun 11 20:53 Calm 10 Partly Cloudy SCT048 SCT080 80 70     71%   83 30.11 30.08      
Jun 11 08:33 ENE 5 10 Partly Cloudy SCT018 76 69     79%   77 30.19        
Jun 10 18:53 SSE 5 10 Clear CLR 83 62     49%   84 30.05 30.03      
Jun 09 15:53 WSW 8 10 Clear CLR 83 57     41%   82 29.95 29.93      
Jun 09 00:53 Calm 10 Clear CLR 64 60     87%     29.92 29.9